RH
48 50 50 47 48 45 42 37 30 26 20 16 11 10 10 10 12 14 13 15 22 18 18 21 28 36 39 38 37 40 40 37 32 28 26 25 27 16 9 9 13 16 17 21
56 56 50 42 36 33 31 24 18 13 10 9 11 14 13 20 22 23 24 23 23 23 28 33 28 26 31 29 30 30 29 30 35 37 30 26 30 29 31 29 20 13 13 15
39 38 34 33 29 21 14 10 9 9 15 15 17 21 31 32 32 30 27 30 30 23 27 28 32 32 42 31 13 9 11 13 15 26 50 68 51 57 58 51 36 23 18 15
36 28 19 12 9 9 9 13 16 19 19 26 27 28 26 31 30 34 40 35 35 36 34 37 43 44 50 28 14 11 11 12 10 11 15 49 100 93 85 78 70 44 32 24
11 11 11 14 19 26 27 24 24 29 27 20 22 29 39 34 35 40 38 43 39 37 39 43 55 44 55 47 48 28 12 13 13 18 21 41 100 100 100 99 81 58 35 51
19 22 27 32 34 36 38 35 33 25 18 25 29 43 46 46 42 45 42 21 18 20 38 53 34 28 33 44 42 22 14 13 20 29 46 99 100 100 100 100 93 58 63 60
27 28 31 37 38 34 29 23 18 16 15 26 33 36 34 30 29 22 18 13 12 12 27 25 22 20 21 24 39 43 25 14 21 42 48 54 95 100 100 100 100 76 75 60
27 29 26 26 25 24 22 22 14 12 14 27 24 27 16 19 13 11 11 8 7 7 8 10 15 16 17 17 23 21 46 34 19 34 43 60 80 68 98 98 100 73 82 58
26 26 27 27 25 10 8 8 11 13 19 26 20 15 16 11 10 9 7 6 6 6 5 5 5 8 14 16 17 18 41 55 40 26 49 45 40 75 88 99 88 67 80 80
12 7 7 7 7 7 8 8 10 12 18 19 10 9 8 10 10 9 8 8 7 5 5 4 4 5 6 9 15 17 16 65 62 37 32 70 56 49 67 69 63 70 62 84
8 8 9 9 8 8 7 6 6 9 12 10 7 7 8 9 9 9 9 9 7 5 5 6 9 9 13 12 10 13 16 16 51 44 48 53 70 79 46 49 50 55 51 63
11 12 11 11 11 10 10 9 7 6 7 7 6 5 5 6 6 6 6 6 6 6 12 16 17 17 17 18 22 20 13 16 17 14 18 26 45 70 51 80 90 86 68 47
21 21 20 20 20 17 14 13 14 12 9 8 6 6 6 5 5 5 6 10 18 22 22 21 21 22 23 21 21 24 27 18 14 18 19 18 16 20 52 48 63 76 81 66
27 27 26 26 26 29 29 31 29 29 26 22 20 23 24 26 26 26 27 29 33 38 37 34 30 29 30 27 26 25 27 28 27 20 16 17 20 21 21 19 19 31 37 43
28 30 28 27 26 26 24 23 23 24 28 29 31 31 32 34 34 35 38 39 40 39 41 42 45 49 51 53 45 33 30 31 29 28 28 27 21 17 17 19 20 21 23 24
28 26 24 31 24 22 23 22 20 19 20 19 20 22 22 22 20 19 16 13 20 29 27 26 28 34 39 46 51 59 64 68 69 70 69 63 53 40 35 30 23 20 18 16
24 24 23 19 21 20 19 18 17 17 15 15 14 15 14 12 10 10 10 11 15 19 20 28 33 37 36 36 38 40 45 51 51 50 47 49 51 57 64 67 66 63 58 53
14 14 12 10 9 9 8 9 9 9 9 9 9 9 10 10 9 10 10 14 25 31 32 29 28 32 32 24 21 21 18 14 12 12 12 9 8 8 8 10 15 17 18 20
8 8 8 7 8 8 10 12 13 12 12 10 10 11 12 11 12 14 12 16 16 13 13 15 14 15 14 13 12 10 9 9 8 8 7 7 6 6 6 6 7 8 9 10
10 11 11 10 7 6 9 6 6 6 8 9 10 10 8 8 8 12 9 9 8 7 9 10 14 15 14 14 14 13 12 14 16 16 16 14 10 8 8 8 10 11 13 15
12 11 11 10 7 6 11 6 5 5 5 6 6 6 6 7 7 7 8 8 7 6 7 10 12 13 12 12 14 16 17 19 20 21 20 20 22 24 26 26 26 25 26 28
41 31 34 29 20 13 12 7 5 4 4 5 5 6 6 6 6 6 8 8 7 6 6 7 8 9 10 10 10 11 12 16 17 12 11 13 18 22 24 24 21 22 26 26
93 84 65 57 44 40 28 21 15 8 6 6 6 6 5 5 6 6 6 7 7 7 7 7 8 8 8 8 8 9 9 9 9 11 18 45 33 15 12 15 21 24 24 27
100 96 92 83 92 95 81 68 48 32 20 12 8 6 6 6 5 5 5 5 6 6 7 7 7 8 8 8 10 11 12 13 17 23 25 43 55 28 25 33 35 36 38 37
100 90 88 75 94 82 83 92 89 86 75 46 25 14 12 11 10 9 9 8 8 8 7 8 9 10 12 12 14 17 18 23 28 34 36 31 52 56 38 37 42 45 43 48
92 85 73 57 86 78 75 99 86 75 89 93 85 68 43 34 34 32 29 26 22 22 22 21 19 14 14 14 17 21 25 34 40 44 34 51 63 64 63 50 49 49 58 77
Wind_Speed
30 31 31 31 30 30 30 29 28 29 29 30 34 35 35 32 24 24 26 29 35 37 40 44 45 45 49 52 53 55 57 60 62 63 63 64 62 64 74 79 76 75 72 67
25 25 25 24 24 25 25 26 27 29 30 31 20 17 18 22 24 27 31 33 35 36 38 38 35 36 41 46 50 51 52 54 56 62 68 68 68 65 66 64 64 74 74 71
18 20 20 22 23 23 24 26 25 20 11 10 12 17 19 21 24 26 27 23 20 18 21 25 31 31 34 37 36 35 40 46 56 64 66 63 65 68 69 66 67 62 69 72
17 18 18 19 21 19 14 11 7 8 8 11 12 17 18 17 13 13 13 13 18 17 19 20 29 31 32 34 32 33 38 46 47 47 55 57 56 61 62 61 62 63 62 69
14 12 8 6 4 2 3 6 7 6 10 14 13 13 11 6 8 13 14 19 20 22 22 21 21 24 27 29 34 28 31 40 33 31 34 42 44 53 61 56 53 53 56 60
1 1 2 2 2 1 1 3 5 8 9 8 8 8 8 10 12 16 17 23 22 26 28 19 27 34 33 32 38 34 33 40 38 33 21 25 31 40 45 47 45 42 48 48
4 3 2 2 2 2 3 3 4 7 8 6 6 9 12 16 16 17 16 16 18 23 22 24 27 31 38 44 43 43 39 38 44 39 29 15 33 33 35 37 37 37 42 39
2 4 2 1 1 4 6 7 8 6 3 5 8 8 9 11 11 11 12 14 16 19 21 23 26 30 34 37 42 48 47 41 39 41 34 21 11 20 34 28 32 28 37 38
3 3 2 2 3 5 6 7 7 4 2 5 3 1 2 3 4 7 10 12 15 18 21 23 26 29 31 34 38 42 48 48 42 39 37 32 18 4 15 28 24 25 31 28
7 8 7 6 4 4 6 6 7 7 3 4 4 4 5 6 8 10 12 15 19 21 23 25 27 27 29 31 34 37 40 43 48 43 38 35 30 21 14 15 20 27 29 34
9 8 9 8 8 9 8 9 8 7 4 4 5 5 6 7 11 14 16 20 23 27 27 29 28 28 28 29 30 31 33 34 37 42 42 42 33 21 15 16 16 22 21 31
8 8 8 8 9 10 11 11 10 10 8 9 11 12 13 15 18 20 22 23 26 27 28 28 28 28 28 27 28 29 29 29 30 31 33 33 44 41 21 12 8 8 15 18
7 8 8 10 10 10 10 10 10 9 11 12 14 15 17 19 20 23 25 28 26 26 25 26 27 27 27 27 26 26 26 26 25 25 27 27 27 23 27 27 26 22 17 12
5 5 6 8 8 8 10 12 12 13 14 13 16 12 21 19 18 20 21 23 24 23 22 23 24 25 26 26 26 26 26 24 23 22 20 20 20 21 19 16 12 9 8 6
6 7 7 10 8 9 13 15 17 17 18 16 17 18 17 21 20 22 22 24 26 27 27 26 25 24 24 24 24 24 24 24 23 22 22 20 18 15 13 12 10 9 8 7
12 12 11 9 17 16 15 18 20 21 21 21 22 22 24 25 26 27 27 27 28 29 29 29 27 27 26 24 22 21 21 21 22 21 20 19 17 16 14 13 12 12 12 12
17 19 21 17 21 21 21 24 23 23 26 26 25 28 27 28 29 29 27 28 27 27 30 31 31 30 26 25 24 22 19 18 19 19 19 19 18 17 16 15 15 15 15 15
24 26 28 25 26 25 25 27 30 30 30 33 28 31 32 34 33 34 31 28 27 26 27 27 26 26 25 23 22 22 20 20 19 19 18 17 17 15 14 14 15 16 17 18
32 33 36 35 30 25 24 31 33 32 21 32 33 33 34 30 30 35 34 28 26 23 20 20 19 19 20 22 22 22 21 23 24 25 23 22 21 20 19 18 20 20 21 22
33 34 34 34 32 27 26 27 26 31 29 25 23 26 29 32 34 32 29 26 23 18 19 19 18 18 19 19 20 19 19 21 24 25 26 27 27 27 28 30 32 32 33 34
31 32 30 33 33 27 26 29 33 30 29 29 31 30 32 30 31 32 30 27 23 23 24 24 24 25 24 24 24 25 25 24 24 24 25 26 27 28 29 30 31 33 35 37
32 36 36 38 35 34 34 36 36 36 34 29 28 30 30 32 34 36 34 33 32 30 31 32 33 32 31 31 31 31 32 31 32 33 36 39 37 35 35 35 37 39 41 42
36 36 41 42 31 35 42 45 41 39 32 35 36 36 35 33 35 38 38 37 37 36 35 36 38 39 38 40 41 41 40 37 39 39 38 41 45 43 41 41 42 43 44 45
38 39 39 44 34 36 47 48 53 47 45 39 42 42 42 38 38 39 40 40 41 42 43 41 39 39 41 42 41 42 41 40 41 40 40 42 43 45 44 44 44 45 47 46
41 42 45 44 34 37 39 41 45 50 52 48 45 45 44 45 42 42 41 42 43 43 44 45 44 43 41 42 40 42 43 43 42 41 44 45 45 45 47 47 47 47 48 48
40 42 48 50 42 46 42 36 42 42 42 43 47 48 46 48 48 48 47 46 45 44 44 44 44 45 45 45 42 44 46 47 45 45 47 47 46 47 48 49 47 48 51 55
Wind_Direction
243 249 255 258 262 264 268 272 275 276 277 279 286 286 285 290 299 298 294 293 296 291 287 287 288 289 289 288 287 283 280 277 275 270 266 264 261 257 253 252 249 249 248 244
250 254 255 259 263 266 270 272 277 284 288 288 286 285 292 303 304 302 300 294 294 296 296 298 301 302 301 293 288 286 284 281 278 272 267 264 259 256 255 255 252 250 246 244
246 251 256 260 266 271 278 282 284 285 287 304 302 299 305 306 302 296 300 306 308 313 316 306 305 316 327 319 304 298 296 291 283 274 267 262 257 255 255 254 252 251 245 242
250 258 269 278 279 279 278 275 263 288 291 301 308 310 306 303 314 320 322 328 326 318 317 315 321 326 325 329 321 309 306 312 296 279 264 259 254 251 251 252 253 250 249 239
271 270 266 279 283 271 258 278 291 302 313 315 319 312 316 339 346 356 349 353 4 350 332 325 340 341 349 349 345 331 324 337 329 305 278 256 252 252 245 247 244 248 250 236
124 154 189 156 286 293 341 313 298 306 325 337 340 4 30 43 42 45 53 57 48 25 31 29 24 19 9 5 0 3 354 360 4 349 308 262 257 246 241 238 239 245 237 227
87 81 81 96 116 30 347 337 325 325 342 6 72 81 85 83 77 80 67 45 39 36 36 33 21 11 21 22 20 16 13 11 17 9 350 311 244 243 236 237 233 236 231 212
115 112 101 123 297 310 316 304 307 304 302 124 106 111 88 85 72 63 48 37 24 20 19 13 11 12 12 11 21 22 21 19 23 26 14 358 326 245 233 229 225 227 221 208
95 91 50 43 341 334 332 345 357 347 289 178 202 317 328 55 45 24 11 8 4 0 3 6 7 5 8 9 11 13 21 26 26 31 34 33 39 55 207 221 221 215 198 198
66 58 56 50 33 5 3 355 354 343 301 232 241 291 296 329 340 338 336 342 344 346 347 352 355 357 1 4 7 12 17 24 34 36 37 38 44 73 113 158 177 182 190 186
37 30 23 18 10 9 6 359 354 351 331 273 287 281 288 296 308 318 325 330 334 336 338 343 347 351 355 357 2 7 15 21 31 40 49 50 50 61 102 135 157 176 194 218
12 11 7 359 356 352 352 358 359 354 343 312 303 304 300 305 312 316 315 319 324 329 333 338 341 345 349 355 0 2 7 16 23 24 31 42 57 62 69 90 134 184 214 220
19 10 2 356 352 350 344 338 335 328 315 310 308 305 304 308 309 311 316 322 327 329 332 335 337 342 346 348 353 358 4 8 15 20 26 30 39 56 72 78 73 71 87 70
4 5 356 353 351 345 337 335 331 325 319 317 305 328 315 321 320 315 319 320 325 331 337 339 340 341 346 352 352 354 358 2 7 14 18 21 23 29 41 53 64 72 85 93
330 324 337 332 331 331 332 329 327 326 316 322 312 320 316 313 319 321 323 324 326 330 332 334 337 341 345 350 350 352 355 357 2 5 7 9 10 10 10 13 15 14 7 354
312 309 307 304 310 317 318 310 313 312 310 314 311 311 313 313 319 318 322 326 324 324 324 325 329 332 336 337 343 348 349 350 353 355 356 357 357 357 355 349 340 330 319 308
296 294 294 301 290 297 301 297 296 299 300 302 305 303 305 307 314 310 316 320 323 321 320 324 326 327 331 331 332 333 332 332 335 334 334 335 335 333 331 329 328 323 317 309
295 291 292 292 294 296 294 292 290 290 295 293 296 297 299 304 308 307 312 314 315 316 314 315 317 321 326 330 332 332 334 339 340 339 341 340 339 341 341 337 330 325 318 310
295 294 298 301 302 308 298 290 289 290 287 290 293 297 299 302 304 303 312 310 313 312 305 306 314 322 328 331 336 338 342 344 345 344 344 343 342 338 334 332 330 325 320 318
287 291 295 300 303 315 308 299 291 298 297 293 299 298 296 297 302 303 302 302 304 293 290 295 301 311 313 316 320 321 322 327 333 335 333 330 323 320 320 319 319 318 317 315
290 289 294 292 296 303 296 289 290 296 286 296 299 295 296 294 288 288 292 291 284 276 282 284 285 293 301 307 311 314 311 311 313 314 315 315 314 312 311 310 310 308 308 308
286 287 288 286 288 293 290 283 283 285 289 288 287 293 298 293 288 284 288 288 289 291 292 294 296 294 293 298 301 300 301 300 300 308 315 308 301 299 298 300 302 303 301 301
282 281 284 288 288 290 287 285 283 283 281 287 288 288 288 296 297 294 292 294 296 292 292 293 292 293 298 300 299 300 305 302 300 301 302 305 305 298 295 298 301 300 300 299
281 285 286 280 289 283 277 280 282 282 282 280 281 282 285 284 285 288 289 290 291 291 291 291 293 293 295 297 300 299 301 300 300 302 300 299 299 299 299 299 299 300 301 300
293 287 287 286 291 287 289 293 290 288 285 281 277 277 280 283 283 283 284 287 287 287 287 290 291 290 290 292 292 293 296 295 293 293 293 291 296 297 298 299 299 300 299 297
297 294 285 285 292 286 288 288 288 288 293 290 284 280 281 281 283 284 286 287 286 286 287 288 289 289 289 289 288 289 290 291 287 288 289 289 292 295 297 298 298 297 298 300